GSAT0218 (GALILEO 22)

Last updated on Nov. 17, 2019, 4:19 a.m. UTC

1 43058U 17079D   19319.58040797 -.00000012  00000-0  00000+0 0  9990
2 43058  56.4407 287.6872 0006036 266.5940  93.3163  1.70473618 11975
UTC
Height (km)
Latitude
Longitude
Inclination
Orbital Period
UTC large
Height (km)
Speed (km/s)
/
Latitude / Longitude
Inclination (degrees)
Orbital Period (minutes)
Azimuth
Elevation
Range (km)
Doppler Factor
iOS Compass Heading
iOS Angle

Next 30 passes for location: Hong Kong

Rise time Rise Azimuth (degrees) Set time Set Azimuth (degrees) Duration Max altitude (degrees)

No matching passes for this satellites